RH
74 81 88 91 94 95 93 98 95 96 97 99 97 83 42 16 7 7 8 8 7 6 6 6 6 7 8 9 10 12 15 27 46 16 13 7 6 7 6 8 9 10 14
71 84 90 98 99 98 99 100 100 100 100 98 77 66 19 7 7 8 8 8 7 7 7 7 8 9 10 11 11 12 13 17 25 21 10 8 7 6 9 18 34 45 66
91 86 93 100 100 100 100 100 100 100 99 87 54 57 12 8 8 8 8 8 8 8 8 8 10 11 12 11 10 10 8 8 10 17 10 9 10 9 12 17 37 53 78
92 96 96 100 100 100 100 100 100 99 82 63 50 12 8 8 8 8 8 8 9 9 9 11 12 12 10 8 7 6 6 7 7 10 14 11 10 10 22 36 57 99 94
91 100 100 99 100 100 100 100 97 82 60 23 9 9 8 9 9 9 9 9 10 10 11 11 10 8 6 7 7 6 7 8 9 20 20 15 16 22 66 98 98 100 100
98 99 100 100 100 100 99 88 59 37 17 11 9 10 10 10 10 11 10 11 11 10 8 6 5 5 6 6 7 8 9 12 16 33 45 65 55 98 100 99 100 100 100
100 100 100 100 100 98 78 38 14 12 10 10 11 11 11 12 12 12 11 10 9 6 5 5 5 6 7 7 8 9 10 12 20 33 49 85 100 100 100 97 100 100 100
100 100 99 95 82 57 19 13 11 11 12 12 13 14 14 14 13 12 10 8 6 5 6 6 7 7 8 9 9 9 10 14 17 24 43 78 98 99 100 98 100 99 92
99 94 83 64 31 18 14 13 13 13 14 15 16 15 15 14 12 10 8 6 6 7 7 8 9 10 10 10 11 13 20 22 35 55 100 100 100 100 100 97 93 99 92
86 74 52 35 27 15 14 14 15 17 17 17 17 16 15 13 10 8 7 8 8 8 9 10 11 12 12 13 25 45 48 49 99 100 100 100 99 98 100 94 98 99 98
60 36 24 20 17 16 17 18 18 19 19 18 18 16 14 11 9 8 9 10 11 11 11 12 13 14 14 18 37 42 57 98 100 100 95 72 89 100 100 100 99 99 98
27 24 23 22 20 20 20 21 22 21 20 20 18 15 12 10 9 10 11 11 12 13 16 18 17 17 19 23 30 43 66 83 75 74 80 94 100 100 100 100 98 98 98
28 26 24 23 23 24 24 23 24 25 23 19 15 13 10 10 12 12 12 13 16 20 22 20 19 18 21 30 41 63 74 70 88 100 100 100 100 100 100 98 95 99 97
26 25 25 26 27 27 28 31 34 27 20 18 15 10 10 12 13 15 17 21 23 20 17 18 18 21 27 40 51 65 75 82 94 100 100 100 100 100 100 99 94 96 96
26 28 30 30 32 36 41 36 34 24 22 13 11 12 12 14 17 22 24 29 32 22 20 20 20 20 23 34 49 65 73 78 86 93 98 95 94 96 98 97 98 96 96
30 32 36 37 43 44 42 28 20 17 12 12 15 16 18 22 24 25 27 24 23 24 23 24 23 25 36 57 70 76 79 84 88 94 95 97 97 98 96 96 96 95 96
40 44 46 48 45 36 33 32 15 15 15 18 18 21 26 27 27 28 27 26 27 26 28 28 28 28 43 72 80 87 87 88 93 100 100 98 97 97 96 96 95 96 96
63 72 75 67 55 52 20 15 16 18 22 26 30 31 30 29 28 30 32 32 32 31 33 33 32 32 48 81 85 90 89 89 90 100 99 98 97 97 95 95 95 96 96
95 90 83 72 46 29 17 18 20 25 27 29 31 33 34 32 33 35 39 41 39 37 37 35 36 36 44 79 88 91 92 89 96 99 97 97 96 96 96 96 96 96 96
94 88 77 48 21 20 23 27 30 30 30 31 32 34 38 39 40 41 42 43 44 43 42 43 42 40 39 74 92 91 89 90 93 97 98 97 96 96 96 95 96 97 96
79 30 21 22 27 30 32 34 34 35 36 35 37 38 41 49 44 46 48 50 50 49 50 49 44 41 40 66 90 88 92 94 94 98 97 96 96 96 96 96 96 96 96
24 27 31 34 35 36 37 39 40 41 43 43 46 48 50 48 50 53 55 56 56 57 60 57 48 43 41 61 86 92 96 95 95 97 96 96 96 96 96 96 97 96 96
36 37 39 40 40 40 40 44 48 52 53 54 52 49 51 56 60 61 63 66 65 63 60 57 51 44 41 54 88 99 100 98 98 97 96 96 96 96 96 96 96 96 96
40 41 42 43 45 46 50 56 57 56 53 49 50 52 56 57 61 64 66 66 65 62 61 58 55 47 40 52 88 96 99 100 97 95 97 96 96 96 96 96 96 96 95
49 48 49 50 51 50 50 50 50 50 50 49 49 50 53 57 58 59 63 67 66 62 61 61 57 47 42 57 90 96 100 98 97 97 96 96 96 96 96 96 96 96 95
49 48 48 48 48 49 49 48 48 50 50 51 53 56 57 56 56 56 59 63 67 66 64 60 56 51 44 61 92 96 98 98 96 96 96 96 96 96 96 96 95 96 96
Wind_Speed
37 37 35 34 34 32 30 29 29 28 27 24 20 18 14 11 11 9 8 7 8 9 11 13 14 15 16 17 18 20 22 23 28 36 36 37 39 39 41 41 43 41 40
38 37 37 36 36 35 34 32 33 32 29 24 18 15 13 12 10 8 8 8 9 10 12 14 15 16 17 18 20 21 23 25 30 37 38 40 40 39 41 42 41 40 40
37 38 35 36 38 36 33 36 37 34 28 20 18 14 15 14 10 8 8 9 11 12 14 15 16 17 18 20 22 24 26 28 31 36 41 40 41 41 43 43 42 43 37
36 34 34 37 36 33 35 35 31 24 21 19 16 17 15 11 9 8 9 10 12 14 15 17 18 20 22 24 25 26 28 30 33 36 39 42 41 40 40 44 46 39 45
34 35 32 36 35 35 33 30 26 20 18 16 18 15 12 9 8 8 9 11 13 15 17 18 19 21 22 23 26 28 30 32 34 36 39 41 41 41 38 38 41 43 44
32 32 34 32 34 30 27 24 23 20 19 18 17 12 9 8 7 8 10 12 14 16 18 19 20 21 22 24 26 27 28 30 33 34 36 37 38 36 37 36 41 41 45
31 32 32 30 29 28 24 22 23 22 20 17 13 11 8 6 7 9 11 13 15 18 20 21 21 22 24 26 27 28 29 30 30 31 33 32 36 34 38 40 40 41 39
31 31 30 29 26 25 26 25 23 20 17 14 11 8 6 7 9 12 13 15 17 18 20 21 23 25 25 27 30 32 33 33 32 30 29 31 33 38 33 34 39 41 44
31 30 29 28 28 28 27 25 22 19 16 13 10 7 6 8 11 14 16 17 18 19 19 21 23 24 25 27 29 32 35 35 33 29 28 31 33 32 31 32 34 35 40
31 30 29 29 29 28 26 23 21 17 14 11 7 6 7 9 12 16 18 18 19 20 20 21 22 24 26 26 27 29 34 35 33 33 33 33 33 30 28 23 26 30 29
32 32 32 30 28 26 25 22 19 16 12 9 6 6 8 11 14 16 17 19 21 22 23 23 23 24 25 25 24 27 28 29 34 34 36 35 33 30 32 23 23 23 26
35 34 32 30 27 25 22 20 17 13 9 6 6 7 10 13 15 16 17 19 21 22 23 23 23 25 25 25 26 26 26 28 30 32 33 34 33 34 30 26 20 22 24
35 34 31 29 26 23 19 17 13 9 7 7 6 10 12 13 14 16 17 19 19 20 22 23 23 24 24 24 24 24 26 28 29 32 32 33 32 32 27 23 20 23 22
36 33 31 28 25 21 17 12 8 7 6 7 13 13 13 13 14 16 17 17 18 19 21 22 23 23 23 24 25 25 27 27 27 28 29 30 30 30 26 21 23 22 19
35 33 30 26 22 18 13 9 7 4 9 13 13 13 13 13 14 15 17 18 20 21 24 23 24 24 25 26 26 25 27 28 30 29 27 29 27 26 22 20 21 19 14
34 31 27 23 18 13 11 8 4 12 13 12 12 12 13 13 14 16 16 19 20 22 23 24 25 25 25 26 28 29 29 29 30 29 29 28 27 23 20 20 19 15 12
30 27 22 18 15 11 6 10 11 10 10 10 12 12 11 12 14 15 18 19 19 21 21 22 23 23 24 25 27 28 30 30 30 29 29 26 23 19 18 19 15 12 12
24 20 18 15 9 9 12 11 10 9 9 8 9 9 11 12 14 16 18 20 18 18 20 22 23 23 23 24 27 29 30 31 30 28 25 22 19 17 17 15 12 13 12
20 16 12 10 12 13 12 10 9 8 8 7 8 9 11 13 14 15 17 18 20 21 22 22 22 22 22 23 26 28 30 30 29 27 23 20 18 17 15 13 12 12 7
14 13 12 14 13 10 9 8 7 7 8 8 9 11 12 14 15 15 16 18 20 22 22 23 23 23 22 23 25 27 29 30 28 25 22 19 17 16 14 12 11 10 4
11 13 12 10 9 7 7 7 7 7 8 9 10 11 13 15 16 17 18 18 20 21 23 23 24 24 22 23 24 27 28 29 27 24 20 18 15 14 12 10 10 5 3
10 10 9 9 8 7 6 6 7 8 9 9 10 11 13 14 15 16 17 19 19 20 22 24 24 23 22 23 24 26 28 29 26 23 19 17 13 12 11 9 7 4 3
9 8 8 7 5 5 5 6 7 7 8 9 11 12 13 14 15 16 17 19 20 21 22 23 24 24 22 21 22 24 27 27 25 21 18 16 12 10 9 8 5 4 3
8 7 6 5 4 4 5 5 7 9 10 11 12 13 14 15 16 16 17 19 21 21 22 22 23 23 23 21 21 22 24 23 22 20 16 13 10 9 9 7 5 4 3
5 4 3 3 4 5 7 8 10 11 13 14 15 16 17 18 18 18 18 20 21 22 22 22 22 23 22 20 20 21 21 20 19 16 13 10 8 8 7 6 4 4 4
3 3 5 6 7 9 10 12 13 14 15 16 17 18 19 20 20 20 20 21 22 22 22 21 22 22 21 18 18 19 19 17 16 13 9 7 7 7 6 5 5 5 4
Wind_Direction
220 216 216 215 215 217 220 222 223 222 222 223 224 231 226 228 227 239 252 271 287 300 309 312 313 315 314 312 312 312 315 316 314 315 320 324 325 328 328 329 327 323 321
217 216 214 216 217 217 217 219 219 220 212 220 219 217 222 219 235 235 258 276 291 302 307 312 313 314 313 313 313 314 314 314 315 315 320 323 325 330 329 329 330 328 332
208 211 211 215 218 218 219 215 210 205 208 204 205 206 215 223 226 243 264 286 297 307 312 313 313 313 312 312 314 316 314 313 314 314 317 322 326 330 329 328 329 329 333
202 209 212 208 208 202 208 208 208 202 202 195 201 204 208 217 225 255 279 295 306 309 309 312 314 314 315 316 316 315 315 316 318 318 318 321 324 328 327 329 329 328 328
206 201 204 208 199 203 195 198 197 191 193 189 196 200 210 215 242 266 289 299 302 306 308 310 311 312 313 312 313 317 318 319 319 318 317 318 322 326 327 326 323 319 323
209 206 201 193 199 189 194 189 185 188 183 186 197 199 208 233 255 277 290 299 305 308 307 307 309 310 311 312 313 313 313 316 314 314 314 313 315 319 319 319 320 318 317
195 193 190 189 187 187 185 179 177 179 186 188 190 201 219 244 271 287 299 303 305 306 308 312 313 313 313 313 314 314 312 312 311 312 310 309 310 313 318 320 319 315 309
190 189 187 185 183 179 177 179 180 182 181 186 193 202 224 256 280 292 300 304 307 308 311 314 314 316 316 317 315 314 312 312 314 313 307 307 309 312 314 310 309 307 308
188 187 183 182 179 179 179 179 180 179 180 185 192 210 245 276 289 301 304 305 306 309 313 314 314 315 316 316 313 315 316 316 317 318 314 311 308 311 313 311 308 309 310
186 184 182 181 183 179 178 176 175 174 179 184 200 234 268 289 301 303 305 308 308 310 314 316 316 315 317 318 318 319 318 319 322 318 313 311 316 314 321 313 312 310 308
182 180 177 177 178 177 174 174 175 176 180 191 223 263 286 295 298 301 305 310 313 315 318 319 320 320 322 325 323 319 318 319 312 313 314 316 321 318 323 318 308 306 303
178 176 174 173 173 173 176 172 173 176 187 215 249 274 291 295 298 301 305 308 309 313 316 320 325 329 329 327 325 323 320 313 309 310 314 317 321 318 321 315 310 308 303
174 172 170 169 171 170 171 171 174 186 212 240 269 283 289 292 295 300 302 304 310 317 321 325 327 327 329 329 328 330 328 328 328 326 322 321 319 317 315 310 316 313 307
172 171 170 170 168 167 169 173 189 213 240 282 277 281 287 294 298 302 306 313 315 319 322 327 328 328 330 331 332 332 333 335 331 324 321 321 323 321 317 316 315 318 312
170 168 166 167 165 165 172 187 211 242 272 272 280 286 293 298 301 306 315 317 320 325 324 325 327 329 331 332 333 332 334 336 335 334 330 329 325 327 315 317 316 315 308
166 164 163 164 165 174 190 197 237 258 266 275 284 292 299 300 301 306 309 310 320 321 324 326 328 329 331 333 335 333 336 338 339 338 337 332 330 320 318 320 318 313 304
165 161 162 166 176 182 185 233 243 259 271 274 285 290 290 294 302 304 305 313 319 320 322 325 326 327 328 330 332 335 336 340 341 341 336 334 325 318 323 322 318 313 301
158 160 169 173 167 209 227 236 242 247 257 270 278 285 295 299 301 304 309 313 316 317 322 327 328 326 325 328 332 334 336 339 341 340 338 333 328 324 324 320 314 312 311
164 161 162 187 208 224 230 234 240 247 252 259 276 291 295 297 299 304 310 316 322 323 325 326 325 322 323 325 329 333 336 338 339 336 337 333 333 326 320 316 314 311 308
161 175 193 208 211 215 225 228 237 247 262 276 286 295 302 302 305 311 315 317 319 321 323 324 325 325 323 323 328 332 333 335 336 336 338 332 332 324 317 312 314 315 312
183 194 199 203 202 204 218 233 249 264 274 282 292 298 299 303 310 311 314 316 316 318 320 321 324 326 323 321 325 328 329 331 334 333 336 330 328 321 314 310 314 304 303
183 185 186 192 195 204 227 250 266 276 285 295 297 300 298 301 302 304 306 307 310 315 318 320 323 324 321 319 322 325 327 329 330 329 331 325 321 316 308 309 309 287 281
171 180 192 202 209 226 245 260 273 282 288 293 296 298 300 303 302 303 304 306 309 312 317 320 321 320 316 313 318 322 324 326 325 323 322 315 312 308 303 302 298 276 269
174 187 200 209 224 244 254 257 273 283 291 294 299 302 301 302 302 305 307 307 307 310 314 317 318 317 314 311 315 319 323 321 318 318 309 299 298 293 293 294 281 251 239
175 182 199 224 245 263 273 278 282 288 292 295 297 297 298 297 299 303 304 304 306 307 311 315 317 314 311 308 314 318 320 321 318 311 300 288 285 281 286 282 247 233 215
214 243 259 270 276 280 284 288 291 294 296 298 299 298 297 298 298 299 301 304 305 306 309 313 316 312 310 306 311 316 321 320 320 310 292 284 279 279 282 260 229 221 202